Location: Libas
(9.8833°N, 125.9833°E)
Time: 21:20:17
(UTC+00:00)

CZ-4C R/B - Pass Details

Date: 27 October 2020
Orbit: 409 x 489 km, 97.7° (Epoch: 25 November)

Event Time Altitude Azimuth Distance (km) Brightness Sun altitude
Rises 20:05:45 0° 178° (S) 2,414 6.8 -20.1°
Reaches altitude 10° 20:07:50 10° 185° (S) 1,531 5.7 -19.6°
Enters shadow 20:09:46 29° 205° (SSW) 803 4.0 -19.1°
